TimeEDT,TemperatureF,Dew PointF,Humidity,Sea Level PressureIn,VisibilityMPH,Wind Direction,Wind SpeedMPH,Gust SpeedMPH,PrecipitationIn,Events,Conditions,WindDirDegrees,DateUTC
12:53 AM,57.9,55.0,90,30.01,4.0,Calm,Calm,-,N/A,,Mostly Cloudy,0,2013-10-01 04:53:00
1:53 AM,59.0,55.0,87,30.01,6.0,South,5.8,-,N/A,,Partly Cloudy,170,2013-10-01 05:53:00
2:53 AM,57.9,55.0,90,30.02,7.0,SSW,4.6,-,N/A,,Partly Cloudy,200,2013-10-01 06:53:00
3:53 AM,57.0,54.0,89,30.01,7.0,SSW,3.5,-,N/A,,Clear,200,2013-10-01 07:53:00
4:53 AM,55.9,53.1,90,30.03,4.0,SW,4.6,-,N/A,,Clear,220,2013-10-01 08:53:00
5:53 AM,55.9,53.1,90,30.04,4.0,SSW,3.5,-,N/A,,Partly Cloudy,200,2013-10-01 09:53:00
6:53 AM,55.9,53.1,90,30.04,3.0,Calm,Calm,-,N/A,,Clear,0,2013-10-01 10:53:00
7:12 AM,55.4,53.6,94,30.05,2.5,Calm,Calm,-,N/A,,Clear,0,2013-10-01 11:12:00
7:41 AM,55.4,53.6,94,30.06,1.5,Calm,Calm,-,N/A,,Clear,0,2013-10-01 11:41:00
7:53 AM,55.9,53.1,90,30.06,1.8,Calm,Calm,-,N/A,,Clear,0,2013-10-01 11:53:00
8:20 AM,55.4,53.6,94,30.07,2.0,Calm,Calm,-,N/A,,Clear,0,2013-10-01 12:20:00
8:39 AM,57.2,55.4,94,30.07,2.5,Calm,Calm,-,0.01,,Scattered Clouds,0,2013-10-01 12:39:00
8:48 AM,57.2,55.4,94,30.08,2.5,Calm,Calm,-,0.01,,Mostly Cloudy,0,2013-10-01 12:48:00
8:53 AM,57.9,55.0,90,30.07,2.5,Calm,Calm,-,0.01,,Mostly Cloudy,0,2013-10-01 12:53:00
9:01 AM,59.0,55.4,88,30.07,3.0,SW,3.5,-,N/A,,Overcast,220,2013-10-01 13:01:00
9:53 AM,60.1,57.0,90,30.07,3.0,WSW,3.5,-,N/A,,Overcast,240,2013-10-01 13:53:00
10:53 AM,63.0,57.9,84,30.08,5.0,West,6.9,-,N/A,,Haze,260,2013-10-01 14:53:00
11:40 AM,66.2,59.0,78,30.08,8.0,WSW,8.1,-,N/A,,Scattered Clouds,240,2013-10-01 15:40:00
11:53 AM,68.0,59.0,73,30.07,9.0,WSW,5.8,-,N/A,,Mostly Cloudy,240,2013-10-01 15:53:00
12:03 PM,68.0,59.0,73,30.07,10.0,SW,6.9,-,N/A,,Scattered Clouds,230,2013-10-01 16:03:00
12:53 PM,71.1,57.9,63,30.05,10.0,West,9.2,16.1,N/A,,Mostly Cloudy,270,2013-10-01 16:53:00
1:12 PM,71.6,57.2,60,30.05,10.0,West,6.9,-,N/A,,Mostly Cloudy,260,2013-10-01 17:12:00
1:20 PM,71.6,57.2,60,30.05,10.0,West,5.8,-,N/A,,Mostly Cloudy,280,2013-10-01 17:20:00
1:44 PM,71.6,57.2,60,30.05,10.0,West,9.2,-,N/A,,Mostly Cloudy,270,2013-10-01 17:44:00
1:53 PM,72.0,57.0,59,30.03,10.0,West,8.1,-,N/A,,Mostly Cloudy,270,2013-10-01 17:53:00
2:53 PM,75.0,55.9,51,30.01,10.0,West,11.5,-,N/A,,Scattered Clouds,260,2013-10-01 18:53:00
3:53 PM,73.0,55.9,55,30.00,10.0,West,5.8,-,N/A,,Scattered Clouds,260,2013-10-01 19:53:00
4:53 PM,75.0,57.0,53,29.99,10.0,SW,9.2,-,N/A,,Partly Cloudy,220,2013-10-01 20:53:00
5:53 PM,73.9,57.9,57,29.99,10.0,SSW,6.9,-,N/A,,Clear,210,2013-10-01 21:53:00
6:53 PM,69.1,57.9,68,29.99,10.0,SSW,4.6,-,N/A,,Clear,200,2013-10-01 22:53:00
7:53 PM,64.9,57.0,75,29.99,10.0,South,4.6,-,N/A,,Clear,180,2013-10-01 23:53:00
8:53 PM,63.0,57.0,81,30.00,9.0,SSW,3.5,-,N/A,,Clear,200,2013-10-02 00:53:00
9:53 PM,62.1,55.9,80,30.01,8.0,Calm,Calm,-,N/A,,Clear,0,2013-10-02 01:53:00
10:53 PM,61.0,55.0,81,30.00,9.0,SSW,3.5,-,N/A,,Clear,200,2013-10-02 02:53:00
11:53 PM,60.1,55.0,83,30.01,10.0,SSW,4.6,-,N/A,,Clear,210,2013-10-02 03:53:00